AMC-6 (26580 NORAD) Tracking and Keplerian Element Data

This shows tracking and keplerian element data for the satellite.

Feedback or suggestion? Click here.




ElementValue
Catalog26580
NameAMC-6
Epoch Orbit8889
Epoch Day34.72823044
Epoch Year2025
RAAN45.6059
Inclination0.0138
Eccentricity0.000317
Argument of Perigee276.0856
Mean Anonmoly299.5453
Mean Motion1.00274038
Decay Rate9.3E-07
L11 26580U 00067A 25034.72823044 .00000093 00000+0 00000+0 0 9998
L22 26580 0.0138 45.6059 0003170 276.0856 299.5453 1.00274038 88894



Live tracking and technical data element details for AMC-6 (NORAD 26580). AMC-6 can be tracked NOW for your location showing map with azimuth and elevation plus other details from your city location.







IsCatalogInMostPopularTable: catalog: 26580, numindb: 281
Update: records affected: 1



GetName: 26580 AMC-6

Hit Count: updated at: Thu, 15 May 2025 20:20:01 GMT